Total_Precipitation_Accumulation
1.31 1.31 1.36 1.34 1.41 1.51 1.56 1.50 1.53 1.58 1.62 1.57 1.49 1.45 1.35 1.26 1.25 1.27 1.25 1.34 1.34 1.33 1.37 1.40 1.46 1.56 1.71 1.74 1.76 1.81 2.02 2.20 2.09 1.96 1.82 1.67 1.54 1.41 1.23 1.21 1.24 1.16 0.98
1.21 1.23 1.33 1.42 1.40 1.34 1.32 1.30 1.31 1.34 1.33 1.31 1.29 1.34 1.36 1.35 1.32 1.28 1.23 1.21 1.24 1.25 1.30 1.37 1.40 1.52 1.65 1.63 1.71 1.78 1.94 2.17 2.24 2.38 2.40 2.14 1.84 1.62 1.49 1.33 1.07 0.98 0.99
1.13 1.18 1.28 1.28 1.24 1.25 1.33 1.34 1.29 1.27 1.26 1.26 1.25 1.24 1.23 1.31 1.41 1.42 1.37 1.36 1.37 1.28 1.33 1.38 1.33 1.36 1.44 1.46 1.58 1.71 1.85 2.01 2.21 2.30 2.41 2.22 2.02 1.73 1.74 1.53 1.25 1.19 0.96
1.00 1.15 1.32 1.36 1.37 1.41 1.42 1.41 1.35 1.27 1.29 1.30 1.25 1.21 1.21 1.19 1.25 1.36 1.40 1.38 1.35 1.30 1.30 1.26 1.19 1.18 1.26 1.35 1.40 1.57 1.75 1.92 2.04 2.07 2.17 2.23 2.26 2.19 2.14 1.92 1.73 1.52 1.24
1.04 1.19 1.32 1.36 1.37 1.37 1.33 1.36 1.35 1.26 1.23 1.32 1.24 1.20 1.21 1.21 1.14 1.16 1.26 1.27 1.26 1.22 1.21 1.12 0.99 0.98 1.03 1.08 1.13 1.39 1.60 1.76 1.90 1.98 2.08 2.25 2.34 2.47 2.31 2.17 2.03 1.90 1.63
1.00 1.12 1.16 1.22 1.29 1.24 1.19 1.18 1.18 1.20 1.21 1.22 1.18 1.19 1.15 0.99 1.02 1.01 1.01 1.06 1.12 1.13 1.14 1.14 1.00 0.86 0.81 0.86 0.88 1.03 1.25 1.43 1.65 1.89 2.04 2.25 2.33 2.30 2.41 2.37 2.27 2.11 1.97
0.95 0.99 1.06 1.18 1.23 1.18 1.09 1.11 1.14 1.16 1.17 1.14 1.10 1.10 1.09 1.03 0.89 0.83 0.83 0.94 1.06 1.10 1.12 1.14 0.98 0.86 0.85 0.78 0.84 0.90 0.94 1.01 1.14 1.49 1.78 1.89 1.92 1.93 2.15 2.30 2.30 2.22 2.17
0.95 1.04 1.09 1.19 1.23 1.22 1.18 1.13 1.12 1.10 1.10 1.13 1.07 1.06 1.12 1.04 0.90 0.80 0.74 0.71 0.85 0.95 0.97 1.01 1.01 1.02 0.93 0.88 0.87 0.89 0.86 0.87 0.91 0.97 1.13 1.28 1.48 1.65 1.84 2.10 2.34 2.29 2.28
0.92 1.05 1.16 1.29 1.30 1.28 1.27 1.22 1.20 1.17 1.13 1.12 1.12 1.14 1.16 1.16 1.05 0.91 0.85 0.86 0.99 1.03 1.04 1.02 1.04 1.07 1.01 0.84 0.81 0.88 0.93 0.96 0.87 0.87 0.88 0.98 1.10 1.24 1.41 1.65 1.92 2.20 2.44
0.97 1.07 1.17 1.27 1.36 1.33 1.36 1.38 1.32 1.29 1.22 1.18 1.25 1.28 1.27 1.30 1.14 0.94 0.91 0.97 1.15 1.22 1.31 1.26 1.11 0.95 0.89 0.74 0.74 0.85 0.85 0.86 0.80 0.79 0.79 0.79 0.83 0.96 1.09 1.29 1.50 1.77 2.02
1.03 1.12 1.24 1.36 1.40 1.39 1.45 1.48 1.44 1.38 1.39 1.31 1.24 1.28 1.35 1.27 1.03 0.80 0.82 0.91 1.12 1.27 1.27 1.24 1.09 0.85 0.73 0.68 0.64 0.68 0.74 0.71 0.75 0.83 0.90 0.91 0.91 0.96 1.02 1.10 1.34 1.50 1.59
1.11 1.18 1.32 1.46 1.32 1.30 1.51 1.58 1.56 1.54 1.54 1.48 1.40 1.33 1.38 1.37 1.10 0.89 0.83 0.88 1.03 1.25 1.37 1.29 1.11 0.92 0.79 0.71 0.59 0.58 0.58 0.57 0.64 0.77 0.85 0.89 0.91 0.93 1.00 1.10 1.27 1.44 1.58
1.21 1.30 1.34 1.39 1.49 1.57 1.60 1.65 1.63 1.58 1.56 1.52 1.48 1.42 1.42 1.48 1.41 1.10 0.96 0.94 1.04 1.10 1.18 1.26 1.13 0.87 0.73 0.69 0.66 0.59 0.52 0.51 0.61 0.69 0.76 0.82 0.82 0.87 0.98 1.15 1.33 1.45 1.48
1.41 1.47 1.48 1.48 1.52 1.65 1.80 1.78 1.69 1.57 1.60 1.62 1.55 1.55 1.56 1.58 1.51 1.31 1.17 1.07 1.07 1.05 1.05 1.04 1.02 0.91 0.77 0.76 0.77 0.67 0.58 0.62 0.67 0.66 0.71 0.78 0.82 0.90 1.02 1.11 1.24 1.40 1.51
1.58 1.57 1.59 1.61 1.67 1.71 1.71 1.67 1.62 1.55 1.48 1.54 1.58 1.58 1.57 1.54 1.41 1.30 1.24 1.20 1.14 1.08 1.03 1.08 1.06 1.08 0.99 0.94 0.95 0.89 0.83 0.86 0.84 0.78 0.78 0.81 0.86 0.92 0.98 1.08 1.19 1.27 1.37
1.85 1.72 1.70 1.71 1.75 1.73 1.71 1.53 1.33 1.26 1.20 1.17 1.22 1.23 1.20 1.15 1.09 1.01 1.01 1.01 0.99 0.98 0.93 1.07 1.17 1.19 1.16 1.15 1.13 1.10 1.08 1.04 1.02 1.03 0.99 0.94 0.96 0.99 1.00 1.06 1.18 1.25 1.24
1.99 1.92 1.81 1.74 1.70 1.65 1.66 1.65 1.54 1.38 1.33 1.21 1.08 1.01 1.00 0.94 0.89 0.86 0.88 0.91 0.92 0.92 0.92 1.04 1.19 1.23 1.24 1.25 1.20 1.16 1.18 1.12 1.12 1.13 1.12 1.12 1.14 1.16 1.14 1.14 1.21 1.29 1.26
1.92 1.86 1.76 1.70 1.64 1.59 1.59 1.62 1.58 1.55 1.53 1.42 1.24 1.11 0.98 0.86 0.81 0.82 0.88 0.92 0.94 0.93 1.01 1.16 1.29 1.28 1.30 1.30 1.23 1.17 1.18 1.14 1.12 1.13 1.14 1.13 1.15 1.21 1.23 1.19 1.20 1.27 1.27
1.78 1.69 1.63 1.62 1.66 1.68 1.68 1.72 1.73 1.73 1.73 1.69 1.50 1.32 1.15 0.93 0.82 0.86 0.89 0.90 1.01 1.09 1.16 1.25 1.27 1.26 1.28 1.26 1.20 1.18 1.22 1.19 1.16 1.17 1.14 1.14 1.14 1.23 1.26 1.23 1.18 1.21 1.18
1.81 1.76 1.70 1.62 1.59 1.67 1.76 1.71 1.72 1.80 1.79 1.72 1.63 1.40 1.13 0.98 0.93 0.94 0.91 0.94 1.03 1.09 1.11 1.13 1.11 1.09 1.12 1.13 1.15 1.19 1.25 1.23 1.22 1.21 1.15 1.13 1.14 1.19 1.20 1.20 1.17 1.16 1.15
1.58 1.53 1.48 1.38 1.35 1.41 1.53 1.59 1.62 1.73 1.71 1.63 1.52 1.38 1.15 0.96 0.99 1.03 1.05 1.03 1.05 1.06 1.06 1.06 1.04 1.01 0.99 1.04 1.09 1.11 1.15 1.17 1.13 1.10 1.07 1.07 1.06 1.12 1.11 1.08 1.10 1.07 1.08
1.51 1.48 1.38 1.31 1.32 1.37 1.43 1.49 1.59 1.66 1.62 1.56 1.41 1.26 1.15 1.02 1.01 0.99 0.96 0.94 0.93 0.94 0.94 1.03 1.06 1.04 1.01 1.06 1.08 1.08 1.05 1.02 0.99 0.97 0.95 0.93 0.96 1.02 1.03 1.04 1.08 1.07 1.06
1.61 1.56 1.54 1.50 1.40 1.44 1.44 1.50 1.58 1.56 1.53 1.53 1.45 1.30 1.20 1.20 1.11 1.04 0.97 0.91 0.88 0.88 0.88 0.91 0.93 0.92 0.92 0.93 0.95 0.95 0.90 0.87 0.85 0.80 0.81 0.84 0.87 0.93 0.96 0.98 1.05 1.09 1.06
1.61 1.59 1.53 1.45 1.39 1.37 1.41 1.50 1.54 1.47 1.39 1.38 1.34 1.24 1.20 1.21 1.13 1.04 0.91 0.84 0.84 0.81 0.79 0.78 0.76 0.72 0.74 0.76 0.79 0.80 0.76 0.73 0.72 0.74 0.75 0.80 0.82 0.84 0.87 0.90 0.97 1.02 1.02
1.52 1.52 1.51 1.44 1.36 1.27 1.23 1.27 1.28 1.25 1.21 1.19 1.19 1.18 1.17 1.11 1.02 0.91 0.83 0.85 0.86 0.83 0.75 0.71 0.71 0.71 0.70 0.69 0.70 0.70 0.72 0.72 0.74 0.70 0.68 0.72 0.76 0.81 0.82 0.87 0.94 1.01 1.01
1.39 1.38 1.32 1.23 1.13 1.07 1.04 1.07 1.06 1.02 1.00 0.97 0.97 0.98 0.94 0.91 0.88 0.81 0.74 0.74 0.76 0.75 0.71 0.68 0.69 0.70 0.71 0.68 0.63 0.60 0.59 0.57 0.61 0.62 0.58 0.59 0.69 0.78 0.79 0.77 0.78 0.87 0.91